Wind_Speed
10 11 11 10 9 8 6 4 3 3 3 2 3 3 2 1 2 8 10 8 6 5 4 2 3 2 4 5 4 5 5 11 8 8 8 5 3 8 6 8 9 7 8 11 12
11 12 12 12 11 9 7 6 5 4 3 3 3 3 2 2 1 6 12 10 7 6 4 5 5 4 5 4 4 5 4 6 4 5 6 4 2 2 5 4 10 7 5 9 12
12 13 13 13 12 11 9 8 7 5 4 4 3 3 1 2 0 6 11 11 8 6 5 6 6 7 6 5 4 5 6 4 6 6 7 7 6 2 4 3 2 5 4 8 13
13 14 14 14 13 13 11 10 9 7 6 5 4 4 4 3 1 7 11 12 9 7 6 5 5 4 7 4 5 3 0 2 3 6 8 5 4 6 4 6 6 7 5 8 11
14 14 15 15 14 13 12 12 11 9 7 6 5 5 6 4 7 7 11 12 10 9 6 3 5 6 2 5 5 1 3 3 5 7 7 7 5 3 9 10 12 12 9 7 11
15 15 15 15 15 14 14 13 13 11 9 8 6 6 5 2 7 7 12 14 13 10 6 5 8 8 6 6 4 5 4 4 5 5 5 5 7 7 6 8 9 12 13 10 7
16 16 17 17 16 16 15 14 14 13 11 9 8 7 5 7 6 8 13 16 16 12 9 8 10 10 7 3 3 2 1 1 1 1 0 2 8 6 5 7 8 6 9 10 9
15 15 16 16 17 16 15 15 15 15 13 11 9 8 7 8 7 10 15 18 16 14 12 13 12 9 7 5 3 3 3 9 1 1 1 2 10 4 7 5 4 2 1 4 6
15 15 15 15 16 17 16 16 16 16 15 13 11 10 7 10 10 13 18 18 17 16 15 13 8 7 6 4 6 4 6 5 3 3 2 2 7 8 9 5 4 3 2 3 2
16 16 15 14 14 15 15 17 18 18 17 15 14 10 11 12 14 15 18 18 16 14 16 13 5 4 3 7 7 5 6 4 3 6 3 1 2 5 9 6 6 4 4 7 6
16 16 15 14 14 13 12 13 14 17 19 17 11 16 8 16 16 16 19 17 13 12 9 15 6 8 7 3 2 5 5 5 8 6 6 3 1 5 4 7 3 7 3 13 12
16 16 15 14 14 13 11 12 12 15 16 19 22 17 19 18 19 21 21 18 17 12 11 7 10 9 7 4 3 6 7 5 4 6 2 1 2 3 5 9 10 4 1 12 18
14 15 15 14 14 13 12 11 10 11 15 17 21 22 18 19 20 21 22 17 18 14 12 11 6 14 5 3 6 7 3 4 3 0 2 6 8 1 2 9 9 8 5 6 17
12 12 13 13 13 13 12 10 8 7 6 10 20 23 27 22 20 20 24 18 14 15 14 13 14 14 8 5 6 11 2 2 4 7 4 4 6 4 2 1 5 5 6 4 6
12 11 12 12 13 12 10 9 6 4 5 7 15 24 28 30 14 27 27 22 17 15 14 11 11 14 15 7 5 3 2 2 2 8 7 7 8 2 3 2 5 9 9 8 8
15 12 12 11 13 13 11 9 6 4 7 4 8 18 26 31 19 20 29 26 18 17 16 12 12 12 16 10 8 6 3 5 5 9 13 4 4 6 3 3 6 9 12 9 10
16 14 13 13 13 13 13 10 4 10 4 5 6 13 21 26 25 19 26 28 23 20 20 18 18 15 14 14 12 10 10 13 9 9 2 3 7 7 5 5 6 8 12 10 10
17 16 14 15 13 13 14 12 11 4 7 5 5 11 22 22 27 22 22 28 28 21 16 22 18 22 19 21 16 14 17 15 7 8 6 6 7 3 8 10 7 6 10 12 10
17 17 16 16 15 14 17 19 9 8 6 4 6 13 18 20 21 24 23 25 26 27 23 16 17 10 15 14 18 17 18 17 18 12 15 20 6 10 11 7 6 8 10 10 12
16 17 18 18 16 16 19 23 16 12 7 5 6 11 18 21 24 27 25 21 23 26 27 16 13 10 10 13 16 19 14 14 20 17 18 15 8 8 7 5 7 12 11 11 13
14 15 18 20 18 20 21 21 21 17 13 5 5 5 9 14 23 24 27 18 13 18 24 25 17 13 10 17 17 15 19 19 20 16 13 12 13 8 12 11 14 10 10 9 8
12 10 17 20 20 18 20 20 19 13 24 12 9 6 5 9 15 24 25 16 18 11 21 25 16 23 21 15 16 14 17 21 21 19 19 22 22 7 10 13 13 12 9 10 11
13 16 16 19 16 18 20 21 21 15 14 11 12 10 8 5 8 15 17 20 20 18 13 17 14 17 16 17 19 22 23 24 23 20 23 16 17 8 11 15 14 15 15 14 14
11 7 16 20 26 18 17 15 13 18 19 16 15 18 12 9 10 7 13 17 16 20 21 17 18 19 19 6 2 10 16 24 26 26 22 24 20 11 10 16 18 21 20 18 18
12 15 14 9 18 15 15 12 13 11 14 16 13 19 17 16 14 14 13 13 18 17 17 16 15 14 18 12 10 12 12 13 20 26 26 21 17 17 16 18 23 25 23 21 21
12 16 16 19 17 23 16 12 13 10 10 9 15 11 13 20 16 12 14 16 16 17 15 14 13 11 14 12 11 14 14 16 18 20 22 22 23 17 14 19 25 27 26 25 23
11 14 15 17 18 15 17 18 12 14 10 13 13 14 13 14 19 19 14 15 14 15 17 17 15 12 18 12 13 19 21 23 23 22 22 25 24 18 22 22 26 31 32 28 25
Wind_Direction
249 252 256 266 276 279 280 280 274 274 277 281 289 286 255 254 214 206 209 200 197 159 146 146 171 104 91 164 52 94 86 83 70 63 53 24 88 4 22 49 56 85 140 171 181
254 253 257 264 268 269 266 261 259 259 258 275 288 279 273 302 264 218 208 204 194 170 148 129 122 82 96 104 87 111 88 87 32 43 41 5 87 343 66 74 46 51 122 157 168
258 258 258 260 263 262 257 251 251 252 252 267 275 262 209 14 84 227 212 210 197 181 164 149 137 130 127 114 143 146 87 61 21 19 23 47 57 65 86 44 12 52 97 142 155
263 262 262 262 261 257 253 247 247 248 250 256 261 247 257 304 194 218 211 210 203 192 186 160 170 149 141 149 164 134 91 343 348 30 53 28 64 70 105 67 55 40 82 129 147
262 261 263 262 260 256 250 245 243 243 246 249 255 256 272 278 248 216 206 203 200 195 184 171 163 174 174 168 160 179 303 309 344 10 27 49 59 104 79 79 71 58 65 105 141
261 261 260 260 260 257 251 245 243 241 244 248 253 257 272 232 246 225 199 190 187 186 184 185 184 178 178 161 162 231 266 300 331 320 37 53 66 87 75 79 69 65 63 73 114
262 261 259 257 257 255 251 246 243 243 242 243 248 257 263 229 249 203 185 180 180 175 178 193 189 178 187 177 200 220 318 88 345 79 230 73 77 83 107 95 83 56 58 63 83
264 262 261 259 256 253 250 247 246 244 242 241 243 247 243 227 232 190 177 176 177 181 185 196 189 171 167 167 165 146 138 161 106 107 227 171 103 88 52 81 83 86 57 71 72
267 264 262 259 257 255 250 246 244 243 242 241 240 241 242 220 210 184 171 172 178 192 192 198 159 118 152 170 168 173 139 120 164 179 141 116 86 7 10 348 336 335 231 222 136
268 265 263 260 257 256 252 248 245 243 241 240 239 238 231 204 203 189 179 175 184 201 212 201 136 151 146 192 178 148 159 112 128 197 166 162 19 19 350 336 248 308 263 220 206
263 264 263 259 256 255 255 253 254 254 241 230 228 217 228 205 201 198 189 187 191 200 199 203 197 188 176 144 161 147 143 113 80 100 138 135 42 5 8 25 255 225 168 197 190
264 261 259 258 256 254 251 249 249 243 252 236 228 220 219 210 199 205 197 200 202 196 210 192 208 203 176 106 124 150 175 144 109 79 117 41 279 346 42 40 49 39 128 192 199
262 260 256 251 249 249 248 250 256 261 261 242 229 219 214 212 202 210 202 202 216 215 209 215 214 202 174 162 157 163 149 155 146 207 286 323 229 191 300 353 354 16 57 207 207
264 261 256 249 243 243 242 247 256 272 270 250 227 221 209 206 216 203 205 203 215 214 223 232 227 210 223 208 183 172 128 162 213 251 241 313 314 238 254 41 20 22 6 314 210
261 260 257 247 240 234 235 236 237 256 265 212 208 206 204 205 208 205 205 210 212 214 207 227 218 214 215 213 199 174 157 164 216 262 284 211 275 82 118 117 30 10 3 327 301
261 254 257 248 239 232 225 221 216 219 237 220 203 202 198 199 203 207 207 208 210 219 225 223 202 201 220 216 238 248 243 242 260 268 263 125 299 182 142 308 352 8 6 347 299
257 252 247 247 239 227 218 204 214 233 242 208 203 198 194 197 198 198 198 205 206 204 218 227 231 233 227 232 241 236 232 242 228 217 285 137 281 248 204 292 332 344 357 354 336
254 249 241 243 236 223 210 193 229 246 224 212 190 195 196 198 201 199 204 209 213 215 231 216 222 223 232 226 222 229 238 260 268 260 249 188 254 144 211 276 296 317 340 340 329
250 245 237 237 231 219 202 204 227 231 221 217 228 195 199 204 203 206 209 215 217 213 220 218 232 208 222 226 225 237 242 249 272 259 269 268 227 262 257 258 286 306 318 325 328
247 241 234 230 228 215 205 216 226 224 224 214 220 205 207 204 201 206 207 222 217 222 216 229 244 223 218 223 235 232 247 236 237 263 264 261 231 243 189 227 274 296 304 311 330
247 239 230 227 222 212 212 222 230 236 231 224 224 224 210 206 211 211 214 216 207 225 219 223 235 237 223 226 227 226 232 237 258 264 272 263 250 190 217 245 264 262 282 274 294
242 230 226 221 215 213 221 223 229 225 237 233 230 243 218 214 207 215 214 213 216 223 209 211 231 239 238 239 226 231 239 234 233 237 244 271 271 218 249 252 227 253 263 256 269
240 233 225 217 208 228 227 231 235 231 230 232 234 240 225 219 212 205 217 216 226 222 200 196 217 236 232 231 240 239 237 236 243 255 261 259 266 218 249 235 233 236 238 250 245
236 217 226 218 215 202 225 228 230 240 237 237 237 239 245 243 227 208 203 214 219 216 214 214 234 227 243 247 174 208 240 237 240 241 250 249 260 252 235 242 244 230 233 230 231
230 224 215 221 225 219 215 220 224 233 243 245 249 242 237 237 229 224 204 206 206 206 203 201 233 233 241 261 266 260 257 244 236 247 261 270 269 256 235 234 247 234 235 236 238
233 227 225 228 221 224 222 230 223 234 234 243 243 232 230 228 222 228 220 212 210 212 206 215 233 235 242 247 253 254 254 250 247 251 258 261 266 268 229 229 245 237 240 240 244
242 235 230 235 229 225 224 230 232 229 252 241 244 242 237 233 230 226 226 219 215 214 219 223 230 238 252 257 264 263 258 257 258 258 258 261 271 248 252 247 238 240 244 245 248
Height
3183 3183 3183 3183 3183 3183 3182 3182 3182 3182 3181 3180 3180 3180 3180 3181 3181 3183 3184 3186 3186 3187 3188 3188 3189 3190 3190 3190 3190 3191 3192 3191 3192 3192 3192 3189 3190 3187 3187 3186 3185 3185 3187 3186 3187
3181 3182 3182 3182 3182 3181 3181 3181 3181 3181 3181 3180 3180 3180 3180 3181 3182 3182 3184 3185 3187 3188 3189 3189 3190 3190 3191 3191 3191 3192 3191 3194 3192 3192 3193 3190 3190 3188 3189 3188 3187 3186 3185 3185 3187
3179 3180 3180 3180 3179 3179 3180 3179 3180 3180 3180 3180 3180 3180 3180 3181 3182 3182 3183 3185 3187 3188 3189 3190 3191 3192 3192 3192 3193 3193 3194 3194 3192 3192 3191 3191 3190 3190 3191 3191 3191 3187 3186 3186 3187
3177 3177 3177 3177 3177 3178 3178 3178 3178 3178 3179 3179 3179 3180 3180 3181 3185 3181 3182 3184 3187 3188 3190 3190 3191 3192 3192 3193 3193 3194 3194 3194 3195 3193 3192 3193 3193 3192 3192 3193 3191 3188 3187 3186 3186
3174 3174 3174 3174 3174 3175 3175 3176 3176 3177 3177 3178 3178 3179 3179 3180 3181 3180 3181 3183 3186 3187 3189 3190 3191 3192 3193 3193 3193 3194 3194 3194 3194 3193 3193 3193 3192 3194 3193 3193 3191 3190 3188 3188 3188
3171 3171 3171 3172 3172 3172 3173 3173 3174 3175 3176 3176 3177 3177 3178 3180 3178 3179 3180 3183 3185 3187 3188 3190 3190 3191 3192 3192 3194 3194 3194 3194 3194 3194 3193 3193 3194 3193 3194 3193 3193 3192 3191 3190 3190
3168 3168 3168 3168 3169 3169 3170 3171 3171 3172 3174 3175 3176 3176 3177 3178 3177 3177 3179 3182 3184 3186 3188 3189 3190 3191 3191 3193 3194 3194 3195 3195 3195 3194 3194 3192 3195 3195 3195 3194 3194 3194 3193 3193 3192
3165 3164 3164 3165 3165 3166 3167 3168 3169 3170 3171 3172 3174 3175 3176 3176 3176 3176 3178 3181 3184 3185 3187 3188 3189 3190 3191 3192 3193 3194 3195 3192 3195 3194 3193 3192 3195 3195 3195 3195 3195 3195 3195 3194 3194
3162 3161 3161 3161 3161 3162 3163 3164 3165 3167 3168 3170 3172 3173 3175 3174 3175 3176 3178 3182 3183 3185 3186 3188 3190 3190 3192 3193 3194 3194 3192 3194 3195 3193 3194 3193 3194 3195 3194 3193 3193 3194 3194 3194 3194
3158 3158 3157 3158 3158 3158 3160 3160 3162 3163 3165 3167 3169 3173 3172 3173 3174 3176 3178 3181 3184 3185 3187 3189 3190 3192 3192 3193 3189 3192 3192 3193 3194 3195 3194 3195 3195 3196 3194 3193 3192 3191 3192 3193 3194
3154 3154 3154 3154 3155 3155 3157 3158 3161 3162 3161 3164 3166 3168 3168 3170 3173 3175 3178 3180 3183 3185 3188 3188 3191 3190 3191 3190 3189 3190 3193 3193 3193 3192 3194 3195 3195 3195 3194 3190 3190 3189 3188 3190 3192
3151 3150 3150 3151 3151 3152 3153 3154 3156 3157 3157 3157 3160 3163 3166 3168 3171 3173 3176 3180 3181 3185 3186 3187 3188 3189 3188 3188 3189 3190 3192 3192 3193 3193 3194 3194 3194 3193 3192 3191 3190 3188 3187 3187 3188
3147 3146 3147 3148 3148 3150 3150 3151 3152 3153 3153 3154 3155 3158 3162 3166 3168 3170 3175 3178 3180 3183 3185 3186 3186 3186 3186 3188 3189 3191 3190 3191 3191 3192 3193 3192 3189 3192 3191 3190 3189 3188 3187 3186 3187
3143 3143 3143 3144 3147 3146 3148 3149 3150 3151 3152 3151 3149 3153 3157 3161 3165 3168 3172 3177 3178 3181 3183 3184 3185 3185 3186 3187 3188 3188 3189 3190 3191 3191 3187 3191 3186 3187 3189 3190 3190 3189 3186 3185 3184
3139 3139 3140 3141 3142 3143 3146 3146 3148 3150 3148 3146 3143 3146 3150 3156 3163 3163 3168 3172 3176 3178 3180 3181 3181 3183 3185 3186 3187 3187 3187 3188 3189 3188 3188 3185 3186 3183 3186 3187 3187 3186 3183 3181 3181
3135 3136 3136 3137 3138 3141 3142 3145 3148 3152 3144 3142 3141 3142 3147 3152 3159 3159 3164 3169 3173 3176 3176 3178 3178 3180 3183 3183 3185 3186 3186 3186 3187 3186 3182 3182 3186 3180 3184 3186 3185 3184 3182 3179 3178
3130 3131 3132 3133 3135 3137 3140 3144 3149 3144 3141 3141 3141 3141 3145 3149 3155 3157 3160 3163 3167 3171 3173 3175 3176 3178 3179 3182 3183 3183 3184 3180 3178 3176 3174 3181 3184 3180 3182 3183 3183 3182 3181 3179 3176
3126 3127 3128 3130 3131 3134 3137 3143 3143 3139 3139 3137 3138 3140 3143 3146 3151 3154 3157 3159 3163 3166 3167 3169 3170 3172 3174 3176 3178 3179 3179 3176 3174 3173 3172 3180 3178 3176 3179 3179 3180 3180 3180 3178 3175
3121 3123 3124 3126 3128 3130 3135 3138 3136 3137 3136 3136 3137 3138 3140 3143 3147 3150 3152 3155 3158 3161 3165 3164 3165 3166 3168 3172 3175 3175 3176 3177 3174 3174 3176 3173 3173 3175 3175 3176 3176 3176 3177 3176 3174
3117 3118 3120 3122 3124 3127 3131 3132 3133 3132 3133 3134 3136 3135 3137 3139 3143 3145 3148 3150 3153 3156 3160 3162 3164 3164 3165 3167 3168 3170 3172 3173 3173 3171 3169 3167 3168 3170 3173 3174 3174 3174 3173 3172 3172
3113 3114 3115 3118 3120 3123 3125 3128 3130 3129 3131 3133 3134 3134 3134 3135 3138 3140 3144 3147 3149 3151 3154 3158 3161 3160 3161 3161 3162 3165 3167 3168 3168 3165 3162 3161 3161 3164 3168 3171 3172 3172 3171 3170 3170
3109 3111 3110 3113 3118 3118 3121 3122 3122 3126 3127 3130 3130 3132 3133 3133 3134 3137 3140 3144 3143 3146 3147 3152 3155 3154 3155 3157 3158 3159 3160 3162 3162 3163 3164 3163 3160 3160 3163 3167 3168 3168 3168 3168 3167
3104 3105 3106 3108 3113 3114 3115 3116 3118 3122 3124 3127 3129 3129 3129 3132 3134 3134 3137 3138 3140 3143 3147 3149 3150 3150 3151 3154 3153 3154 3157 3159 3159 3160 3157 3158 3157 3156 3158 3161 3163 3163 3163 3164 3163
3101 3103 3103 3104 3105 3109 3113 3114 3115 3115 3118 3121 3123 3124 3127 3129 3130 3132 3133 3134 3137 3139 3141 3144 3145 3145 3141 3143 3145 3149 3151 3152 3154 3153 3152 3151 3155 3154 3155 3156 3157 3158 3158 3159 3159
3097 3097 3098 3102 3103 3105 3107 3110 3112 3114 3113 3115 3118 3119 3124 3127 3128 3129 3131 3132 3134 3136 3138 3141 3142 3142 3142 3143 3144 3146 3147 3148 3149 3149 3147 3148 3149 3152 3151 3151 3151 3152 3153 3154 3154
3093 3094 3095 3096 3097 3100 3103 3106 3108 3110 3111 3114 3113 3117 3118 3121 3125 3126 3129 3130 3131 3133 3135 3137 3138 3139 3139 3141 3142 3143 3144 3144 3145 3146 3146 3147 3147 3149 3149 3146 3146 3146 3147 3147 3147
3089 3090 3091 3091 3094 3097 3101 3102 3104 3105 3107 3108 3108 3109 3113 3116 3117 3120 3123 3125 3128 3130 3132 3134 3135 3136 3135 3137 3139 3138 3139 3139 3140 3141 3142 3142 3143 3143 3142 3141 3141 3140 3140 3140 3141